User: anonymous   Login
Location: Goheenville
(40.9070°N, 79.3720°W)
Time: 21:48:08
(UTC-05:00)
Language:

Cosmos 1727 Rocket - Orbit

View from above orbital plane
View from above orbital plane
View from above satellite
View from above satellite

Ground track
Ground track

The orbit data is extracted from the following two-line orbital elements,

1 16511U 86008B   16339.71722932 +.00000038 +00000-0 +23469-4 0  9990
2 16511 082.9444 004.1427 0025572 105.3295 031.7421 13.75812786549274
Epoch (UTC): 04 December 2016 17:12:48
Eccentricity: 0.0025572
inclination: 82.9444°
perigee height: 960 km
apogee height: 997 km
right ascension of ascending node: 4.1427°
argument of perigee: 105.3295°
revolutions per day: 13.75812786
mean anomaly at epoch: 31.7421°
orbit number at epoch: 54927

The dashed part of the orbit path shows where the satellite is in the earth's shadow,  

DLR